Location: Carri�res
(48.9069°N, 2.1792°E)
Time: 07:22:02
(UTC+00:00)

CSL-04 Debris - Visible Passes

Search period start: 10 May 2021 00:00
Search period end: 20 May 2021 00:00
Orbit: 826 x 849 km, 98.9° (Epoch: 09 May)

Date Brightness Start Highest point End Pass type
(mag) Time Alt. Az. Time Alt. Az. Time Alt. Az.
10 May 6.9 20:46:11 10° WSW 20:48:27 13° W 20:50:45 10° WNW visible
11 May 6.7 20:28:59 10° SW 20:32:29 17° W 20:35:59 10° NW visible
12 May 6.5 20:12:19 10° SW 20:16:32 23° W 20:20:47 10° NW visible
13 May 6.1 19:55:55 10° SSW 20:00:39 30° W 20:05:24 10° NNW visible
16 May 7.0 20:53:04 10° W 20:54:34 11° W 20:56:04 10° WNW visible
17 May 6.8 20:35:28 10° WSW 20:38:34 15° W 20:41:42 10° NW visible
18 May 6.6 20:18:39 10° SW 20:22:38 21° W 20:26:37 10° NW visible
